Detroit Metro, MI

8:35 AM EDT on May 24, 2017 (GMT -0400)
Detroit Metro Wayne County

Weather History for KDTW - October, 2012

Change the Weather History Date:

Saturday, October 6, 2012

  Actual Average Record
Temperature  
Mean Temperature 45 °F 56 °F  
Max Temperature 51 °F 65 °F 91 °F (1963)
Min Temperature 39 °F 46 °F 30 °F (1935)
Degree Days  
Heating Degree Days 20 10  
Month to date heating degree days 42 53  
Since 1 July heating degree days 155 167  
Cooling Degree Days 0 1  
Month to date cooling degree days 2 6  
Year to date cooling degree days 1150 801  
Moisture  
Dew Point 36 °F    
Average Humidity 71    
Maximum Humidity 92    
Minimum Humidity 50    
Precipitation  
Precipitation 0.00 in 0.09 in 2.20 in (1959)
Month to date precipitation 0.34 0.53  
Year to date precipitation 21.77 26.23  
Snow  
Snow 0.00 in 0.00 in T in (1991)
Month to date snowfall 0.0 0.0  
Since 1 July snowfall 0.0 0.0  
Since 1 September snowfall 0.0 0.0  
Snow Depth 0.00 in    
Sea Level Pressure  
Sea Level Pressure 30.04 in    
Wind  
Wind Speed 9 mph (WSW)    
Max Wind Speed 20 mph    
Max Gust Speed 25 mph    
Visibility 10 miles    
Events      
T = Trace of Precipitation, MM = Missing Value Source: NWS Daily Summary

Daily Weather History Graph

Daily Weather History Graph

Search for Another Location

Airport or City:

Trip Planner

Search our weather history database for the weather conditions in past years. The results will help you decide how hot, cold, wet, or windy it might be!

Date:

Astronomy

Oct. 06, 2012 Rise Set
Actual Time 7:36 AM EDT 7:05 PM EDT
Civil Twilight 7:08 AM EDT 7:33 PM EDT
Nautical Twilight 6:36 AM EDT 8:05 PM EDT
Astronomical Twilight 6:03 AM EDT 8:38 PM EDT
Moon 11:15 PM EDT (10/6) 1:35 PM EDT (10/6)
Length of Visible Light 12h 25m
Length of Day
11h 29m
Waning Gibbous, 65% of the Moon is Illuminated
Oct 6
Waning Gibbous
Oct 8
Last Quarter
Oct 15
New
Oct 21
First Quarter
Oct 29
Full

Hourly Weather History & Observations

Time (EDT) Temp. Windchill Dew Point Humidity Pressure Visibility Wind Dir Wind Speed Gust Speed Precip Events Conditions
12:53 AM 45.0 °F 40.1 °F 42.1 °F 90% 29.97 in 10.0 mi SSW 9.2 mph - N/A   Overcast
1:31 AM 44.6 °F 39.2 °F 42.8 °F 93% 29.96 in 10.0 mi SW 10.4 mph - N/A   Overcast
1:53 AM 45.0 °F 40.1 °F 41.0 °F 86% 29.97 in 10.0 mi SW 9.2 mph - N/A   Overcast
2:12 AM 44.6 °F 39.2 °F 41.0 °F 87% 29.96 in 10.0 mi SW 10.4 mph - N/A   Overcast
2:53 AM 44.1 °F 39.0 °F 41.0 °F 89% 29.97 in 9.0 mi SW 9.2 mph - N/A   Mostly Cloudy
3:53 AM 42.1 °F 37.1 °F 39.9 °F 92% 29.96 in 8.0 mi SSW 8.1 mph - N/A   Scattered Clouds
4:53 AM 41.0 °F 36.4 °F 37.9 °F 89% 29.96 in 6.0 mi SSW 6.9 mph - N/A   Partly Cloudy
5:53 AM 39.9 °F 34.5 °F 37.0 °F 89% 29.97 in 7.0 mi SSW 8.1 mph - N/A   Partly Cloudy
7:53 AM 39.9 °F 35.1 °F 37.0 °F 89% 30.00 in 9.0 mi SW 6.9 mph - N/A   Mostly Cloudy
8:53 AM 42.1 °F 36.1 °F 37.9 °F 85% 30.03 in 10.0 mi WSW 10.4 mph - N/A   Mostly Cloudy
9:53 AM 44.6 °F 39.7 °F 37.4 °F 76% 30.03 in 10.0 mi SW 9.2 mph - N/A   Mostly Cloudy
10:53 AM 48.0 °F - 37.9 °F 68% 30.04 in 10.0 mi WSW 12.7 mph 21.9 mph N/A   Mostly Cloudy
11:24 AM 46.4 °F 40.1 °F 33.8 °F 62% 30.03 in 10.0 mi West 15.0 mph 25.3 mph N/A   Overcast
11:53 AM 48.0 °F - 32.0 °F 54% 30.04 in 10.0 mi WSW 13.8 mph 23.0 mph N/A   Overcast
12:27 PM 48.2 °F - 32.0 °F 54% 30.03 in 10.0 mi West 13.8 mph 24.2 mph N/A   Overcast
12:53 PM 50.0 °F - 32.0 °F 50% 30.04 in 10.0 mi WSW 16.1 mph 25.3 mph N/A   Overcast
1:53 PM 50.0 °F - 32.0 °F 50% 30.04 in 10.0 mi West 15.0 mph - N/A   Overcast
2:53 PM 48.9 °F - 32.0 °F 52% 30.05 in 10.0 mi West 11.5 mph 20.7 mph N/A   Overcast
3:53 PM 48.9 °F - 33.1 °F 54% 30.06 in 10.0 mi West 11.5 mph 18.4 mph N/A   Overcast
4:53 PM 48.9 °F - 34.0 °F 56% 30.06 in 10.0 mi West 10.4 mph - N/A   Mostly Cloudy
5:53 PM 48.9 °F - 34.0 °F 56% 30.07 in 10.0 mi WSW 11.5 mph - N/A   Mostly Cloudy
6:53 PM 48.0 °F - 34.0 °F 58% 30.09 in 10.0 mi West 8.1 mph - N/A   Mostly Cloudy
7:53 PM 46.9 °F - 36.0 °F 66% 30.11 in 10.0 mi WSW 9.2 mph - N/A   Overcast
8:53 PM 46.0 °F 42.5 °F 35.1 °F 66% 30.12 in 10.0 mi WSW 6.9 mph - N/A   Overcast
9:53 PM 45.0 °F 41.2 °F 36.0 °F 71% 30.12 in 10.0 mi WSW 6.9 mph - N/A   Overcast
10:53 PM 45.0 °F 41.8 °F 36.0 °F 71% 30.13 in 10.0 mi WSW 5.8 mph - N/A   Overcast
11:53 PM 45.0 °F 41.8 °F 36.0 °F 71% 30.13 in 10.0 mi West 5.8 mph - N/A   Overcast